User: anonymous   Login
Location: Niverville
(49.6028°N, 97.0419°W)
Time: 02:36:02
(UTC-06:00)
Language:

Cosmos 2237 Rocket - Orbit

View from above orbital plane
View from above orbital plane
View from above satellite
View from above satellite

Ground track
Ground track

The orbit data is extracted from the following two-line orbital elements,

1 22566U 93016B   14326.13476395 -.00000065  00000-0 -89023-5 0  2098
2 22566 071.0093 235.8346 0008082 126.8046 233.3819 14.14870102118589
Epoch (UTC): 22 November 2014 03:14:03
Eccentricity: 0.0008082
inclination: 71.0093°
perigee height: 837 km
apogee height: 848 km
right ascension of ascending node: 235.8346°
argument of perigee: 126.8046°
revolutions per day: 14.14870102
mean anomaly at epoch: 233.3819°
orbit number at epoch: 11858

The dashed part of the orbit path shows where the satellite is in the earth's shadow,  

DLR